Flag for Switzerland Weather past 2 weeks in Baar, Zug, Switzerland

Now
66 °F

Mild.


Feels Like: 66 °F
Forecast: 55 / 81 °F
Wind: 3 mph from North

Location: Zurich Town / Ville.

Current Time: Aug 1, 2015 at 5:04:17 PM

Latest Report: Aug 1, 2015 at 4:00 PM


Visibility: N/A

Pressure: 29.96 "Hg

Humidity: 72%

Dew point: 57 °F

Location of BaarLocation

Historic Weather in Baar — Graph

°F

Baar temperature yesterday

Maximum temperature yesterday: 73 °F (at 5:00 PM)
Minimum temperature yesterday: 51 °F (at 6:00 AM)
Average temperature yesterday: 63 °F

Past Weeks' High & Low Weather Summary

 TemperatureHumidityPressure
High92 °F (Jul 21, 5:00 PM)98% (Jul 27, 2:00 AM)30.17 "Hg (Jul 27, 2:00 AM)
Low51 °F (Jul 31, 6:00 AM)31% (Jul 21, 7:00 PM)29.66 "Hg (Jul 24, 5:00 PM)
Average68 °F66%29.93 "Hg
* Reported Jul 17 3:00 PM — Aug 1 3:00 PM, Baar, Weather by CustomWeather, © 2015

Note: Actual official high and low records may vary slightly from our data, if they occured in-between our weather recording intervals... More about our weather records

Advertising

Baar weather history for previous 24 hours

 ConditionsComfort  
Time TempWeatherWind HumidityBarometerVisibility
3:00 PM
Sat, Aug 1
67 °FMild.3 mph71%29.96 "HgN/A
2:00 PM65 °FMild.3 mph74%29.96 "HgN/A
1:00 PM64 °FMild.3 mph77%29.98 "HgN/A
12:00 PM61 °FCool.2 mph90%30.01 "HgN/A
11:00 AM60 °FCool.2 mph90%30.01 "HgN/A
10:00 AM59 °FCool.1 mph96%30.01 "HgN/A
9:00 AM58 °FCool.3 mph89%30.01 "HgN/A
8:00 AM58 °FOvercast.3 mph89%29.99 "HgN/A
7:00 AM60 °FCool.3 mph71%29.95 "HgN/A
4:00 AM62 °FCool.1 mph63%29.89 "HgN/A
3:00 AM60 °FCool.1 mph67%29.90 "HgN/A
2:00 AM60 °FCool.1 mph67%29.91 "HgN/A
1:00 AM62 °FCool.1 mph62%29.90 "HgN/A
12:00 AM64 °FMild.2 mph56%29.90 "HgN/A
11:00 PM
Fri, Jul 31
64 °FMild.1 mph56%29.90 "HgN/A
10:00 PM64 °FMild.6 mph54%29.89 "HgN/A
9:00 PM65 °FMild.3 mph57%29.88 "HgN/A
8:00 PM67 °FMild.2 mph53%29.88 "HgN/A
7:00 PM69 °FMild.5 mph46%29.87 "HgN/A
6:00 PM70 °FMild.7 mph45%29.88 "HgN/A
5:00 PM73 °FMild.8 mph39%29.87 "HgN/A
Weather by CustomWeather, © 2015

See weather overviewHow to use our weather pages